Change the Weather History Date:

Wednesday, April 2, 2014

  Actual Average (KCAK) Record (KCAK)
Temperature  
Mean Temperature 48 °F 44 °F  
Max Temperature 57 °F 54 °F 82 °F (2010)
Min Temperature 39 °F 34 °F 16 °F (1907)
Degree Days  
Heating Degree Days 17 21  
Month to date heating degree days 42  
Since 1 July heating degree days 5437  
Cooling Degree Days 0 0  
Month to date cooling degree days 0  
Year to date cooling degree days 0  
Moisture  
Dew Point 28 °F    
Average Humidity 49    
Maximum Humidity 63    
Minimum Humidity 31    
Precipitation  
Precipitation 0.00 in 0.12 in 1.77 in (1977)
Month to date precipitation 0.24  
Year to date precipitation 8.14  
Snow  
Snow 0.00 in 0.20 in - ()
Month to date snowfall 0.4  
Since 1 July snowfall 45.1  
Snow Depth -    
Sea Level Pressure  
Sea Level Pressure 30.11 in    
Wind  
Wind Speed 8 mph (NW)    
Max Wind Speed 17 mph    
Max Gust Speed 25 mph    
Visibility 10 miles    
Events      
T = Trace of Precipitation, MM = Missing Value Source: NWS Daily Summary

Daily Weather History Graph

Daily Weather History Graph

Search for Another Location

Airport or City:

Trip Planner

Search our weather history database for the weather conditions in past years. The results will help you decide how hot, cold, wet, or windy it might be!

Date:

Astronomy

Apr. 02, 2014 Rise Set
Actual Time 7:06 AM EDT 7:51 PM EDT
Civil Twilight 6:38 AM EDT 8:19 PM EDT
Nautical Twilight 6:05 AM EDT 8:52 PM EDT
Astronomical Twilight 5:31 AM EDT 9:26 PM EDT
Moon 8:48 AM EDT 11:14 PM EDT
Length of Visible Light 13h 40m
Length of Day
12h 44m
Waxing Crescent, 10% of the Moon is Illuminated
Apr 2
Waxing Crescent
Apr 7
First Quarter
Apr 15
Full
Apr 22
Last Quarter
Apr 29
New

Hourly Weather History & Observations

Time (EDT) Temp. Windchill Dew Point Humidity Pressure Visibility Wind Dir Wind Speed Gust Speed Precip Events Conditions
12:15 AM 48.2 °F - 31.1 °F 52% 30.03 in 10.0 mi West 16.1 mph 25.3 mph N/A   Clear
12:34 AM 48.2 °F - 31.1 °F 52% 30.04 in 10.0 mi West 17.3 mph 24.2 mph N/A   Scattered Clouds
12:55 AM 47.8 °F - 31.1 °F 52% 30.05 in 10.0 mi WNW 13.8 mph 23.0 mph N/A   Overcast
1:15 AM 47.3 °F - 31.1 °F 53% 30.07 in 10.0 mi West 13.8 mph 24.2 mph N/A   Overcast
1:34 AM 46.9 °F - 31.3 °F 55% 30.07 in 10.0 mi West 11.5 mph 17.3 mph N/A   Overcast
1:55 AM 46.8 °F - 31.3 °F 55% 30.06 in 10.0 mi WNW 9.2 mph 18.4 mph N/A   Overcast
2:15 AM 46.4 °F 41.1 °F 31.5 °F 56% 30.07 in 10.0 mi West 11.5 mph - N/A   Overcast
2:34 AM 44.1 °F 38.6 °F 30.9 °F 60% 30.08 in 10.0 mi NW 10.4 mph - N/A   Mostly Cloudy
2:55 AM 42.4 °F 37.0 °F 29.1 °F 59% 30.07 in 10.0 mi NW 9.2 mph - N/A   Mostly Cloudy
3:15 AM 41.4 °F 36.8 °F 28.0 °F 59% 30.07 in 10.0 mi NW 6.9 mph - N/A   Scattered Clouds
3:34 AM 41.0 °F 35.8 °F 27.5 °F 59% 30.07 in 10.0 mi NW 8.1 mph - N/A   Clear
3:55 AM 41.0 °F 36.4 °F 27.1 °F 58% 30.05 in 10.0 mi NNW 6.9 mph - N/A   Scattered Clouds
4:15 AM 40.8 °F 37.8 °F 26.6 °F 57% 30.06 in 10.0 mi NW 4.6 mph - N/A   Scattered Clouds
4:34 AM 40.6 °F 38.6 °F 26.6 °F 57% 30.05 in 10.0 mi WNW 3.5 mph - N/A   Scattered Clouds
4:55 AM 40.3 °F - 27.0 °F 59% 30.05 in 10.0 mi Calm Calm - N/A   Scattered Clouds
5:15 AM 40.5 °F 35.8 °F 27.3 °F 59% 30.08 in 10.0 mi WSW 6.9 mph - N/A   Mostly Cloudy
5:34 AM 40.5 °F 37.3 °F 27.1 °F 59% 30.08 in 10.0 mi WNW 4.6 mph - N/A   Overcast
5:55 AM 40.8 °F - 27.1 °F 58% 30.09 in 10.0 mi Calm Calm - N/A   Overcast
6:15 AM 40.3 °F - 27.5 °F 60% 30.10 in 10.0 mi Calm Calm - N/A   Mostly Cloudy
6:34 AM 40.1 °F - 27.7 °F 61% 30.12 in 10.0 mi Calm Calm - N/A   Scattered Clouds
6:55 AM 40.1 °F 36.9 °F 26.8 °F 59% 30.12 in 10.0 mi West 4.6 mph - N/A   Clear
7:15 AM 39.4 °F - 27.7 °F 63% 30.13 in 10.0 mi Calm Calm - N/A   Clear
8:55 AM 41.7 °F 39.8 °F 27.5 °F 57% 30.14 in 10.0 mi WNW 3.5 mph - N/A   Scattered Clouds
9:15 AM 41.9 °F 38.2 °F 27.1 °F 56% 30.13 in 10.0 mi NW 5.8 mph - N/A   Mostly Cloudy
9:34 AM 42.6 °F 40.9 °F 27.0 °F 54% 30.14 in 10.0 mi West 3.5 mph - N/A   Mostly Cloudy
9:55 AM 43.3 °F - 26.8 °F 52% 30.14 in 10.0 mi Calm Calm - N/A   Overcast
10:15 AM 44.4 °F 42.9 °F 27.9 °F 52% 30.14 in 10.0 mi WNW 3.5 mph - N/A   Scattered Clouds
10:34 AM 44.6 °F 41.4 °F 27.9 °F 52% 30.15 in 10.0 mi West 5.8 mph - N/A   Clear
10:55 AM 45.3 °F - 28.4 °F 52% 30.15 in 10.0 mi Calm Calm - N/A   Clear
11:15 AM 46.0 °F 42.5 °F 29.3 °F 52% 30.15 in 10.0 mi NW 6.9 mph - N/A   Clear
11:35 AM 46.6 °F - 29.3 °F 51% 30.15 in 10.0 mi WSW 6.9 mph - N/A   Clear
11:54 AM 48.4 °F - 30.6 °F 50% 30.15 in 10.0 mi West 9.2 mph - N/A   Clear
12:15 PM 47.8 °F - 30.0 °F 50% 30.15 in 10.0 mi West 6.9 mph - N/A   Clear
12:34 PM 48.2 °F - 29.3 °F 48% 30.15 in 10.0 mi West 4.6 mph - N/A   Clear
12:55 PM 50.5 °F - 29.8 °F 45% 30.14 in 10.0 mi WNW 3.5 mph - N/A   Clear
1:15 PM 50.9 °F - 29.5 °F 44% 30.14 in 10.0 mi West 5.8 mph - N/A   Clear
1:55 PM 53.6 °F - 30.0 °F 41% 30.14 in 10.0 mi WNW 5.8 mph - N/A   Clear
2:15 PM 53.4 °F - 28.4 °F 38% 30.13 in 10.0 mi Calm Calm - N/A   Clear
2:34 PM 56.3 °F - 30.4 °F 37% 30.13 in 10.0 mi NNW 3.5 mph - N/A   Clear
2:55 PM 55.4 °F - 28.2 °F 35% 30.12 in 10.0 mi NNW 6.9 mph - N/A   Clear
3:15 PM 56.5 °F - 27.3 °F 33% 30.12 in 10.0 mi NW 4.6 mph - N/A   Clear
3:35 PM 57.2 °F - 27.5 °F 32% 30.11 in 10.0 mi WNW 4.6 mph - N/A   Clear
3:54 PM 56.5 °F - 26.4 °F 32% 30.12 in 10.0 mi Calm Calm - N/A   Clear
4:15 PM 57.2 °F - 26.8 °F 31% 30.12 in 10.0 mi NW 8.1 mph - N/A   Clear
4:35 PM 56.5 °F - 26.4 °F 32% 30.11 in 10.0 mi North 6.9 mph - N/A   Clear
4:54 PM 56.1 °F - 26.8 °F 32% 30.11 in 10.0 mi NW 6.9 mph - N/A   Clear
5:15 PM 55.9 °F - 25.9 °F 31% 30.12 in 10.0 mi WNW 6.9 mph - N/A   Clear
5:34 PM 55.8 °F - 26.1 °F 32% 30.11 in 10.0 mi WNW 4.6 mph - N/A   Clear
5:55 PM 54.3 °F - 26.2 °F 34% 30.11 in 10.0 mi NNW 6.9 mph - N/A   Clear
6:15 PM 53.2 °F - 25.9 °F 35% 30.11 in 10.0 mi NW 6.9 mph - N/A   Clear
6:34 PM 52.3 °F - 26.4 °F 37% 30.10 in 10.0 mi North 6.9 mph - N/A   Clear
6:55 PM 51.1 °F - 26.1 °F 38% 30.11 in 10.0 mi North 6.9 mph - N/A   Clear
7:15 PM 49.8 °F - 27.1 °F 41% 30.12 in 10.0 mi NNW 5.8 mph - N/A   Clear
7:35 PM 48.4 °F - 27.3 °F 44% 30.12 in 10.0 mi North 5.8 mph - N/A   Clear
7:55 PM 47.3 °F - 27.1 °F 46% 30.12 in 10.0 mi North 4.6 mph - N/A   Clear
8:15 PM 46.0 °F 44.8 °F 27.9 °F 49% 30.12 in 10.0 mi North 3.5 mph - N/A   Clear
8:34 PM 45.5 °F 43.2 °F 27.3 °F 49% 30.13 in 10.0 mi NNE 4.6 mph - N/A   Scattered Clouds
8:55 PM 44.6 °F 42.2 °F 27.5 °F 51% 30.14 in 10.0 mi NNE 4.6 mph - N/A   Mostly Cloudy
9:15 PM 44.1 °F 42.5 °F 27.3 °F 52% 30.14 in 10.0 mi North 3.5 mph - N/A   Scattered Clouds
9:34 PM 43.3 °F 39.9 °F 28.9 °F 57% 30.14 in 10.0 mi NE 5.8 mph - N/A   Mostly Cloudy
9:55 PM 43.2 °F 39.7 °F 28.0 °F 55% 30.14 in 10.0 mi NE 5.8 mph - N/A   Overcast
10:15 PM 42.1 °F 39.2 °F 28.0 °F 58% 30.15 in 10.0 mi NE 4.6 mph - N/A   Mostly Cloudy
10:34 PM 41.9 °F 39.0 °F 28.8 °F 60% 30.15 in 10.0 mi ENE 4.6 mph - N/A   Mostly Cloudy
10:55 PM 41.9 °F 36.9 °F 28.2 °F 58% 30.15 in 10.0 mi ENE 8.1 mph - N/A   Unknown
11:15 PM 41.9 °F 36.9 °F 28.6 °F 59% 30.15 in 10.0 mi ENE 8.1 mph - N/A   Unknown
11:34 PM 41.9 °F 35.9 °F 28.4 °F 59% 30.14 in 10.0 mi ENE 10.4 mph - N/A   Overcast